Dati Storici

Data ora Umidita' aria (%) Temperatura aria (°C) Rad globale (W/m²) Gonioanemometro (°) Tacoanemometro (m/s) Pioggia (mm)
18-06-2020 02:50 97.6 % 17.767 -45.601 1.56 0 0
18-06-2020 02:40 97.6 % 17.991 -53.553 0.382 0 0
18-06-2020 02:30 97.6 % 17.858 -62.667 -0.009 0 0
18-06-2020 02:20 97.6 % 17.977 -56.997 0.562 0 0
18-06-2020 02:10 97.6 % 18.158 -47.316 0.159 0 0
18-06-2020 02:00 97 % 18.211 -70.113 -0.011 0 0
18-06-2020 01:50 96.8 % 18.535 -73.457 -0.009 0 0
18-06-2020 01:40 96.6 % 18.555 -62.385 0.674 0 0
18-06-2020 01:30 95.6 % 18.593 -50.772 -0.009 0 0
18-06-2020 01:20 94.8 % 18.676 -52.062 0.216 0 0
18-06-2020 01:10 94.5 % 18.836 -61.27 1.111 0 0
18-06-2020 01:00 93.7 % 18.802 -63.123 0.838 0 0
18-06-2020 00:50 93.1 % 18.847 -72.39 -0.012 0 0
18-06-2020 00:40 92 % 19.106 -73.324 -0.012 0 0
18-06-2020 00:30 91.4 % 19.441 -61.444 10.306 0 0
18-06-2020 00:20 92.3 % 19.351 -69.645 0.877 0 0
18-06-2020 00:10 91 % 19.445 -65.35 0.405 0 0
18-06-2020 00:00 89.9 % 19.84 -72.521 -0.012 0 0
17-06-2020 23:50 89.6 % 20.008 -69.566 -0.015 0 0
17-06-2020 23:40 89.7 % 20.072 -68.234 -0.014 0 0

I dati sono presentati in modo automatico a scopo informativo. In seguito a verifica i dati possono subire modifiche o essere invalidati e non riportati negli archivi definitivi.